Homer, AK

6:17 PM AKST on November 18, 2017 (GMT -0900)
Homer

Weather History for PAHO - July, 2012

Change the Weather History Date:

Wednesday, July 18, 2012

  Actual Average Record
Temperature  
Mean Temperature 48 °F -  
Max Temperature 57 °F 61 °F 79 °F (1936)
Min Temperature 39 °F 46 °F 38 °F (1955)
Degree Days  
Heating Degree Days 17    
Moisture  
Dew Point 45 °F    
Average Humidity 88    
Maximum Humidity 100    
Minimum Humidity 62    
Precipitation  
Precipitation 0.00 in - - ()
Sea Level Pressure  
Sea Level Pressure 29.99 in    
Wind  
Wind Speed 4 mph (NW)    
Max Wind Speed 20 mph    
Max Gust Speed 25 mph    
Visibility 9 miles    
Events Fog    
Averages and records for this station are not official NWS values.
T = Trace of Precipitation, MM = Missing Value Source: NWS Daily Summary

Daily Weather History Graph

Daily Weather History Graph

Search for Another Location

Airport or City:

Trip Planner

Search our weather history database for the weather conditions in past years. The results will help you decide how hot, cold, wet, or windy it might be!

Date:

Astronomy

Jul. 18, 2012 Rise Set
Actual Time 5:20 AM AKDT 11:02 PM AKDT
Civil Twilight 4:08 AM AKDT 12:13 AM AKDT
Nautical Twilight 2:44 AM AKDT 1:39 AM AKDT
Astronomical Twilight Sun does not rise Sun does not rise
Moon 5:19 AM AKDT (7/18) 10:13 PM AKDT (7/18)
Length of Visible Light 20h 04m
Length of Day
17h 42m
Waning Crescent, 0% of the Moon is Illuminated
Jul 18
Waning Crescent
Jul 18
New
Jul 26
First Quarter
Aug 1
Full
Aug 9
Last Quarter

Hourly Weather History & Observations

Time (AKDT) Temp. Windchill Dew Point Humidity Pressure Visibility Wind Dir Wind Speed Gust Speed Precip Events Conditions
12:53 AM 45.0 °F 43.5 °F 45.0 °F 100% 30.00 in 10.0 mi North 3.5 mph - N/A   Clear
1:53 AM 44.1 °F - 44.1 °F 100% 30.00 in 10.0 mi Calm Calm - N/A   Clear
2:19 AM 44.6 °F - 44.6 °F 100% 30.00 in 10.0 mi Calm Calm - N/A   Partly Cloudy
2:31 AM 46.4 °F - 46.4 °F 100% 30.00 in 10.0 mi Calm Calm - N/A   Mostly Cloudy
2:53 AM 45.0 °F - 44.1 °F 97% 30.00 in 10.0 mi Calm Calm - N/A   Mostly Cloudy
3:07 AM 44.6 °F - 44.6 °F 100% 30.00 in 10.0 mi Calm Calm - N/A   Scattered Clouds
3:53 AM 43.0 °F - 43.0 °F 100% 30.00 in 10.0 mi Calm Calm - N/A   Clear
4:53 AM 39.9 °F - 39.9 °F 100% 29.99 in 7.0 mi Calm Calm - N/A   Clear
5:18 AM 39.2 °F - 39.2 °F 100% 29.99 in 1.8 mi Calm Calm - N/A   Clear
5:27 AM 41.0 °F 39.0 °F 41.0 °F 100% 29.99 in 0.5 mi NE 3.5 mph - N/A Fog Fog
5:32 AM 41.0 °F 39.0 °F 41.0 °F 100% 29.99 in 1.2 mi NE 3.5 mph - N/A   Partly Cloudy
5:36 AM 42.8 °F 41.1 °F 42.8 °F 100% 29.99 in 3.0 mi NE 3.5 mph - N/A   Scattered Clouds
5:53 AM 42.1 °F 40.2 °F 42.1 °F 100% 29.99 in 9.0 mi NNE 3.5 mph - N/A   Mostly Cloudy
6:05 AM 39.2 °F 37.0 °F 39.2 °F 100% 29.98 in 4.0 mi NE 3.5 mph - N/A   Scattered Clouds
6:53 AM 44.1 °F 40.8 °F 44.1 °F 100% 29.98 in 10.0 mi ENE 5.8 mph - N/A   Scattered Clouds
7:53 AM 46.9 °F - 46.9 °F 100% 29.98 in 10.0 mi ENE 4.6 mph - N/A   Clear
8:53 AM 50.0 °F - 48.0 °F 93% 29.98 in 10.0 mi ESE 5.8 mph - N/A   Clear
9:53 AM 52.0 °F - 48.0 °F 86% 29.98 in 10.0 mi Calm Calm - N/A   Clear
10:53 AM 53.1 °F - 48.9 °F 86% 29.97 in 10.0 mi SW 5.8 mph - N/A   Clear
11:53 AM 55.0 °F - 46.0 °F 72% 29.97 in 10.0 mi WSW 9.2 mph - N/A   Clear
12:53 PM 53.1 °F - 46.0 °F 77% 29.97 in 10.0 mi WSW 12.7 mph - N/A   Clear
1:53 PM 55.0 °F - 45.0 °F 69% 29.98 in 10.0 mi WSW 17.3 mph - N/A   Clear
2:53 PM 54.0 °F - 46.0 °F 75% 29.98 in 10.0 mi WSW 19.6 mph 25.3 mph N/A   Clear
3:53 PM 54.0 °F - 46.0 °F 75% 29.99 in 10.0 mi WSW 17.3 mph - N/A   Clear
4:53 PM 55.0 °F - 44.1 °F 67% 29.99 in 10.0 mi WSW 18.4 mph - N/A   Clear
5:53 PM 57.0 °F - 44.1 °F 62% 29.99 in 10.0 mi WSW 15.0 mph - N/A   Clear
6:53 PM 55.0 °F - 44.1 °F 67% 29.99 in 10.0 mi WSW 15.0 mph - N/A   Clear
7:53 PM 55.0 °F - 45.0 °F 69% 29.99 in 10.0 mi WSW 8.1 mph - N/A   Clear
8:53 PM 53.1 °F - 46.0 °F 77% 30.01 in 10.0 mi SW 3.5 mph - N/A   Clear
9:53 PM 54.0 °F - 46.0 °F 75% 30.01 in 10.0 mi NNE 3.5 mph - N/A   Clear
10:53 PM 50.0 °F - 48.0 °F 93% 30.02 in 10.0 mi ENE 3.5 mph - N/A   Clear
11:53 PM 48.0 °F - 45.0 °F 89% 30.02 in 10.0 mi Calm Calm - N/A   Clear